Temp
60 60 60 60 59 59 58 58 59 60 60 61 62 61 61 61 60 60 58 62 64 67 70 72 72 72 72 70 69 69 69 69 70 69 69 69 68 68 68 68 67 67 67
61 61 60 60 59 59 59 58 59 59 59 59 60 61 61 60 60 60 59 58 62 64 67 70 71 72 72 71 69 68 68 68 69 69 68 68 68 67 67 67 66 67 67
61 60 59 59 59 59 58 58 58 57 57 59 58 58 59 60 59 59 60 58 58 61 63 66 68 70 70 71 70 69 68 67 68 68 68 67 67 67 67 67 65 65 67
62 60 59 58 58 57 57 55 55 55 54 54 54 56 56 57 58 58 58 58 57 60 60 63 65 67 68 69 70 70 69 68 67 67 67 67 67 67 66 65 65 65 65
62 59 58 56 56 56 55 55 54 52 52 52 56 56 55 55 56 60 58 58 56 58 60 61 62 63 65 67 69 70 70 69 68 67 66 66 66 66 65 65 64 64 65
61 57 56 56 55 54 53 52 51 51 51 50 56 56 51 52 53 53 54 58 56 56 56 58 60 62 62 65 67 69 70 70 70 69 67 66 65 65 64 64 64 64 63
59 55 54 53 53 52 50 51 50 49 49 49 47 50 49 51 51 50 51 52 54 55 55 55 54 58 61 62 65 67 69 70 70 69 68 66 65 63 63 63 63 63 63
56 56 52 51 51 50 49 48 47 46 46 46 44 44 42 47 46 51 51 52 47 50 50 52 53 54 56 57 60 64 67 69 69 69 68 66 64 63 63 63 62 62 63
54 52 51 50 49 48 46 45 45 44 43 44 44 44 39 37 42 46 49 46 44 45 45 47 51 53 54 53 55 58 59 62 67 68 68 65 64 64 63 62 62 62 62
52 52 50 48 47 46 45 45 47 44 47 45 44 47 43 43 35 37 41 45 42 44 42 43 44 47 51 52 53 52 52 53 58 65 66 65 64 63 62 62 62 62 62
51 51 49 47 45 45 44 43 42 42 42 41 40 38 38 38 37 34 33 37 40 40 40 40 41 44 48 49 50 51 49 49 51 58 63 64 64 62 62 61 61 61 60
47 47 47 45 44 43 42 42 41 41 40 40 39 37 39 38 38 37 36 37 36 37 40 39 40 42 44 45 50 49 49 48 48 51 58 61 62 62 61 61 60 60 60
43 44 44 43 42 42 42 41 40 39 38 37 37 36 38 40 40 39 37 35 35 38 35 38 40 42 45 42 46 47 48 46 47 48 50 56 58 59 59 59 58 58 58
44 44 43 42 42 42 42 40 38 38 38 36 36 37 38 41 39 39 37 35 33 35 35 34 37 39 40 41 44 46 45 44 45 45 46 47 52 54 55 55 55 55 55
47 43 42 42 41 41 41 40 38 37 37 37 36 36 36 36 37 36 36 38 35 30 32 33 33 39 39 40 42 42 44 44 44 44 44 45 47 50 52 52 53 53 53
43 42 42 41 40 44 44 40 39 39 38 38 39 37 36 36 36 36 38 37 37 34 31 34 35 37 39 44 45 43 43 45 44 44 44 44 45 46 49 49 50 51 52
42 41 42 42 43 41 42 41 40 40 39 37 35 35 35 37 35 34 34 34 33 33 31 32 35 36 35 36 40 41 43 42 43 44 44 44 44 45 46 47 48 49 49
42 41 42 42 42 41 40 39 37 36 35 34 34 34 35 38 33 32 31 31 32 34 31 28 30 32 33 35 35 35 42 46 44 46 45 45 45 45 45 44 44 45 46
41 40 41 40 40 40 37 36 35 34 33 33 33 33 33 32 31 31 31 31 32 36 31 29 28 30 31 32 32 35 36 36 42 45 43 43 43 44 44 44 44 44 44
40 40 40 40 39 37 36 35 34 31 31 32 31 31 30 30 30 30 31 30 31 29 29 28 27 28 29 31 30 29 29 31 32 40 42 41 42 44 44 44 43 43 43
43 42 40 38 37 36 36 32 32 30 29 29 30 30 31 33 36 35 33 31 29 28 27 27 27 26 26 25 25 27 27 27 28 31 32 33 33 34 36 40 42 44 43
41 40 37 36 35 38 36 36 33 29 30 29 27 29 29 32 31 33 33 34 33 30 28 27 27 26 26 25 26 25 24 23 21 29 28 26 31 31 33 35 40 41 42
38 38 36 34 32 32 36 37 36 31 28 27 26 27 29 33 31 30 31 32 32 33 31 30 28 27 27 27 26 25 24 24 24 29 27 26 24 26 30 37 40 41 41
36 36 32 32 31 34 36 36 35 29 27 27 27 27 27 27 27 29 29 28 28 28 29 30 29 29 29 30 29 29 28 26 28 32 28 24 24 26 26 30 38 40 41
35 32 32 30 29 29 34 35 29 25 26 25 28 28 28 27 30 32 28 26 27 27 33 34 34 35 35 34 34 32 29 28 26 28 25 26 26 23 24 27 29 37 39
33 31 31 30 32 27 33 34 31 23 17 24 25 27 29 28 29 30 27 25 24 26 26 26 27 28 31 30 32 30 28 25 25 24 28 26 24 24 21 24 30 30 30
MSLP
1020.85 1020.96 1020.95 1020.93 1020.81 1020.73 1020.69 1020.71 1020.63 1020.50 1020.32 1019.99 1019.75 1019.67 1019.53 1019.38 1019.29 1019.29 1019.18 1019.06 1019.06 1019.08 1018.93 1018.77 1018.60 1018.52 1018.51 1018.61 1018.69 1018.79 1018.82 1018.66 1018.44 1018.30 1018.18 1018.29 1018.31 1018.27 1018.31 1018.53 1018.57 1019.05 1019.25
1020.54 1020.70 1020.80 1020.90 1020.75 1020.69 1020.57 1020.55 1020.49 1020.43 1020.27 1020.11 1019.82 1019.58 1019.34 1019.11 1018.97 1018.88 1018.75 1018.55 1018.40 1018.39 1018.33 1018.29 1018.15 1018.03 1018.00 1018.06 1018.21 1018.39 1018.56 1018.57 1018.38 1018.18 1018.04 1017.95 1017.90 1018.00 1018.14 1018.13 1018.29 1018.56 1018.66
1020.33 1020.59 1020.84 1020.70 1020.67 1020.79 1020.79 1020.71 1020.60 1020.56 1020.52 1020.26 1020.22 1019.76 1019.48 1019.14 1018.98 1018.84 1018.69 1018.58 1018.11 1017.75 1017.72 1017.66 1017.68 1017.57 1017.52 1017.63 1017.73 1017.95 1018.11 1018.06 1018.06 1018.05 1017.92 1017.82 1017.76 1017.67 1017.67 1017.87 1017.91 1018.05 1017.99
1020.33 1020.58 1020.74 1021.00 1020.98 1020.86 1020.89 1020.87 1020.90 1020.83 1020.72 1020.56 1020.32 1019.83 1019.49 1019.17 1018.90 1018.56 1018.32 1018.12 1018.00 1017.83 1017.55 1017.28 1017.06 1017.00 1017.01 1017.14 1017.23 1017.33 1017.58 1017.74 1017.75 1017.69 1017.70 1017.69 1017.66 1017.57 1017.58 1017.72 1017.83 1017.85 1017.78
1020.57 1020.87 1021.14 1021.24 1021.05 1020.94 1020.97 1021.08 1021.06 1021.17 1021.06 1020.71 1020.36 1019.97 1019.58 1019.24 1018.77 1018.39 1018.28 1017.98 1017.69 1017.51 1017.27 1016.98 1016.74 1016.48 1016.40 1016.50 1016.62 1016.71 1016.87 1017.08 1017.27 1017.43 1017.49 1017.48 1017.36 1017.39 1017.31 1017.40 1017.58 1017.84 1017.56
1021.16 1021.33 1021.49 1021.47 1021.27 1021.14 1021.26 1021.41 1021.46 1021.33 1021.18 1020.87 1020.41 1019.87 1019.57 1019.14 1018.69 1018.57 1018.37 1018.05 1017.84 1017.55 1017.36 1017.06 1016.71 1016.43 1016.04 1015.97 1016.01 1016.09 1016.26 1016.47 1016.64 1016.91 1017.10 1017.29 1017.27 1017.32 1017.45 1017.36 1017.35 1017.46 1017.57
1021.80 1021.96 1022.07 1021.95 1021.71 1021.81 1022.04 1021.88 1021.65 1021.60 1021.25 1020.88 1020.51 1020.04 1019.50 1018.91 1018.83 1018.90 1018.79 1018.64 1018.30 1018.03 1017.76 1017.59 1017.17 1016.69 1016.27 1016.06 1015.46 1015.41 1015.53 1015.77 1015.96 1016.20 1016.51 1016.86 1017.07 1017.19 1017.32 1017.38 1017.30 1017.30 1017.24
1022.31 1022.34 1022.36 1022.26 1022.26 1022.28 1022.20 1022.08 1021.99 1022.02 1021.80 1021.53 1021.36 1020.89 1019.74 1019.23 1019.30 1019.28 1018.99 1018.99 1019.06 1018.83 1018.47 1018.09 1017.68 1017.22 1016.63 1016.25 1015.80 1015.40 1014.94 1015.04 1015.18 1015.40 1015.75 1016.28 1016.66 1016.87 1017.03 1017.15 1017.16 1017.18 1017.22
1022.45 1022.44 1022.50 1022.53 1022.51 1022.40 1022.41 1022.36 1022.28 1022.23 1022.22 1021.96 1021.79 1021.65 1021.19 1020.64 1020.23 1019.40 1019.23 1019.31 1019.32 1019.24 1019.09 1018.65 1017.97 1017.46 1017.00 1016.56 1016.13 1015.74 1015.42 1014.77 1014.62 1014.78 1015.06 1015.60 1016.14 1016.44 1016.69 1016.87 1016.96 1017.01 1017.06
1022.63 1022.56 1022.58 1022.59 1022.67 1022.75 1022.79 1022.60 1022.36 1022.38 1022.36 1022.37 1022.15 1021.96 1021.77 1021.61 1021.31 1019.77 1019.69 1019.71 1019.73 1019.48 1019.31 1018.94 1018.54 1017.85 1017.19 1016.66 1016.24 1015.97 1015.61 1015.27 1015.16 1014.28 1014.38 1014.91 1015.53 1016.04 1016.31 1016.65 1016.79 1016.86 1016.92
1022.68 1022.63 1022.63 1022.68 1022.83 1022.94 1022.95 1022.86 1022.71 1022.60 1022.49 1022.52 1022.53 1022.66 1022.24 1021.83 1021.61 1021.67 1020.36 1020.17 1020.31 1019.98 1019.65 1019.20 1018.71 1018.16 1017.56 1017.02 1016.51 1016.06 1015.73 1015.29 1015.23 1014.95 1014.15 1014.35 1014.95 1015.79 1016.02 1016.19 1016.62 1016.86 1016.92
1023.02 1022.96 1022.88 1022.93 1023.04 1023.14 1023.18 1023.09 1022.86 1022.81 1022.64 1022.55 1022.59 1022.85 1022.69 1022.35 1022.02 1021.89 1021.49 1020.77 1020.74 1020.30 1019.94 1019.15 1018.76 1018.31 1017.80 1017.34 1016.85 1016.64 1015.87 1015.82 1014.99 1014.87 1014.62 1014.36 1014.99 1015.68 1015.96 1016.04 1016.32 1016.71 1016.96
1023.46 1023.56 1023.42 1023.32 1023.25 1023.14 1023.06 1023.06 1022.96 1022.74 1022.62 1022.54 1022.70 1022.46 1022.23 1022.00 1021.99 1021.85 1021.71 1021.30 1020.82 1020.20 1020.15 1019.31 1018.78 1018.29 1017.84 1017.57 1017.16 1016.68 1016.29 1015.87 1015.43 1015.27 1015.59 1014.79 1015.12 1015.74 1016.05 1016.08 1016.34 1016.54 1016.97
1023.60 1023.55 1023.48 1023.34 1023.11 1022.93 1022.77 1022.83 1022.85 1022.63 1022.45 1022.43 1022.18 1022.03 1021.89 1021.83 1021.83 1021.62 1021.65 1021.46 1020.74 1020.44 1020.02 1019.59 1018.95 1018.30 1018.01 1017.58 1017.22 1016.80 1016.56 1016.62 1016.05 1015.62 1016.10 1015.84 1015.69 1016.00 1016.40 1016.52 1016.50 1016.48 1016.94
1023.03 1023.12 1023.08 1023.16 1023.08 1023.00 1022.65 1022.59 1022.53 1022.30 1022.27 1022.03 1021.77 1021.68 1021.72 1021.49 1021.42 1021.27 1021.15 1021.05 1020.82 1020.13 1019.59 1019.33 1019.00 1018.28 1017.87 1017.47 1017.12 1016.89 1016.55 1016.50 1016.56 1016.35 1016.31 1016.05 1016.61 1016.41 1016.56 1016.63 1016.55 1016.47 1016.68
1022.90 1022.91 1022.83 1022.71 1022.65 1022.40 1022.15 1022.15 1022.29 1021.99 1021.81 1021.54 1021.46 1021.49 1021.45 1021.37 1021.19 1021.07 1021.00 1020.60 1020.30 1020.18 1019.24 1019.10 1018.64 1018.17 1017.74 1017.28 1016.82 1016.58 1016.43 1016.24 1016.32 1016.33 1016.36 1016.12 1016.39 1016.50 1016.54 1016.68 1016.38 1015.98 1016.16
1022.55 1022.55 1022.41 1022.26 1021.92 1021.82 1021.83 1021.79 1021.73 1021.62 1021.57 1021.66 1021.67 1021.71 1021.56 1021.21 1021.34 1020.95 1020.64 1020.41 1020.04 1019.73 1019.29 1018.68 1018.42 1018.03 1017.78 1017.51 1017.07 1016.63 1016.27 1015.99 1015.74 1015.56 1015.87 1016.08 1016.16 1016.22 1016.19 1015.91 1016.20 1015.79 1015.82
1022.01 1022.13 1022.08 1021.94 1021.67 1021.66 1021.70 1021.67 1021.71 1021.90 1021.97 1022.01 1021.91 1021.69 1021.49 1021.22 1020.99 1020.64 1020.35 1020.03 1019.64 1019.15 1018.94 1018.50 1018.17 1017.92 1017.70 1017.32 1017.16 1016.91 1016.24 1015.70 1015.47 1015.09 1015.11 1014.79 1015.26 1015.82 1015.65 1015.67 1015.57 1015.59 1015.61
1021.80 1021.75 1021.59 1021.64 1021.53 1021.80 1021.86 1021.83 1021.99 1022.09 1022.08 1022.02 1021.93 1021.75 1021.47 1021.10 1020.70 1020.30 1019.94 1019.52 1018.99 1018.43 1018.21 1018.09 1017.80 1017.59 1017.39 1017.18 1017.11 1016.93 1016.64 1016.21 1015.71 1015.23 1015.00 1014.78 1014.76 1014.89 1015.10 1014.99 1015.14 1015.26 1015.11
1021.64 1021.64 1021.42 1021.45 1021.61 1021.73 1021.91 1021.90 1022.06 1022.12 1021.97 1021.83 1021.68 1021.48 1021.15 1020.83 1020.43 1019.95 1019.44 1019.04 1018.57 1018.31 1017.94 1017.69 1017.47 1017.34 1017.21 1016.98 1016.96 1016.98 1016.67 1016.39 1016.00 1015.38 1015.09 1014.89 1014.71 1014.62 1014.62 1014.30 1014.58 1014.71 1014.66
1021.33 1021.10 1021.39 1021.36 1021.42 1021.64 1021.79 1021.93 1021.93 1021.88 1021.76 1021.61 1021.43 1021.18 1020.87 1020.52 1020.02 1019.54 1019.22 1018.84 1018.54 1018.16 1017.82 1017.59 1017.43 1017.25 1017.09 1016.97 1016.94 1016.78 1016.72 1016.47 1016.13 1015.69 1015.15 1014.88 1014.80 1014.58 1014.36 1014.20 1014.19 1014.31 1014.25
1021.43 1021.16 1021.08 1021.20 1021.56 1021.56 1021.69 1021.72 1021.67 1021.65 1021.50 1021.31 1021.12 1020.81 1020.49 1020.08 1019.67 1019.34 1018.88 1018.39 1018.08 1017.69 1017.36 1017.13 1016.89 1016.65 1016.38 1016.36 1016.39 1016.46 1016.41 1016.39 1016.20 1015.24 1015.03 1014.74 1014.64 1014.60 1014.37 1014.15 1014.22 1014.11 1014.14
1021.94 1021.18 1021.20 1021.53 1021.75 1021.74 1021.59 1021.48 1021.39 1021.24 1021.19 1021.06 1020.82 1020.46 1020.07 1019.64 1019.31 1018.83 1018.36 1017.88 1017.43 1017.09 1016.73 1016.45 1016.14 1015.93 1015.81 1015.72 1015.80 1015.80 1015.79 1015.78 1015.57 1014.97 1015.13 1014.90 1014.50 1014.54 1014.14 1013.84 1013.71 1013.56 1013.63
1021.77 1021.41 1021.55 1021.85 1021.85 1021.88 1021.58 1021.28 1021.13 1021.05 1021.02 1020.83 1020.52 1020.13 1019.73 1019.25 1018.84 1018.35 1017.73 1017.22 1016.86 1016.50 1016.09 1015.73 1015.34 1015.08 1014.95 1014.82 1014.96 1014.94 1014.86 1014.86 1014.66 1014.37 1014.65 1014.58 1014.08 1013.97 1013.69 1013.38 1012.98 1012.97 1013.17
1021.29 1021.56 1021.78 1021.97 1022.02 1021.93 1021.54 1021.20 1021.13 1021.16 1021.01 1020.73 1020.26 1019.83 1019.32 1018.83 1018.39 1017.84 1017.30 1016.83 1016.35 1015.79 1015.28 1014.92 1014.58 1014.25 1014.02 1013.97 1014.00 1014.17 1014.00 1013.94 1013.71 1013.55 1013.73 1014.18 1013.39 1013.35 1013.01 1012.77 1012.55 1012.48 1012.50
1021.46 1021.77 1021.98 1022.09 1022.05 1021.89 1021.47 1021.21 1021.09 1021.14 1021.15 1020.49 1020.06 1019.55 1019.05 1018.52 1017.89 1017.32 1016.73 1016.12 1015.53 1015.07 1014.79 1014.45 1014.21 1013.88 1013.66 1013.48 1013.31 1013.34 1013.39 1013.40 1013.30 1013.16 1012.29 1013.18 1012.83 1013.16 1012.90 1011.69 1011.55 1011.52 1011.69
Wind_Speed
3 3 2 2 2 1 2 2 2 3 5 6 6 5 6 6 6 4 3 10 12 13 13 13 12 12 11 10 10 11 11 11 12 11 11 12 14 13 13 14 13 14 13
4 2 2 2 2 2 2 2 3 4 5 5 6 6 7 6 6 6 4 5 12 14 14 15 15 13 13 13 10 10 12 13 13 12 12 12 12 13 13 14 16 16 16
4 4 2 2 1 3 5 5 5 4 5 5 6 6 5 7 6 6 6 5 6 12 14 15 15 14 14 14 13 13 12 12 14 14 12 10 11 10 11 12 13 14 16
4 3 1 3 3 4 4 4 3 4 4 4 4 6 5 5 6 7 5 5 5 6 9 16 17 16 15 16 17 16 15 13 11 12 12 12 12 12 10 11 10 9 11
4 4 3 2 3 3 4 3 3 2 3 4 6 5 5 5 6 5 6 7 6 6 7 12 18 17 17 17 19 18 17 16 15 14 10 10 12 10 11 9 11 11 10
6 5 4 5 5 4 5 4 3 3 2 4 6 7 5 5 4 4 6 6 6 6 6 8 8 10 17 19 20 21 20 19 18 16 14 11 9 8 8 7 6 4 4
8 7 4 5 5 5 4 3 3 4 4 4 3 6 3 6 5 5 5 5 9 9 10 9 5 5 7 19 22 23 23 22 20 19 17 14 12 10 8 6 3 3 2
6 7 6 6 6 4 6 5 4 3 2 5 2 3 5 6 4 9 7 6 6 6 9 11 11 11 8 6 11 22 24 24 23 21 18 14 13 10 9 7 5 3 0
6 6 6 5 4 3 4 4 4 5 2 2 4 1 4 3 7 1 10 2 5 5 5 8 10 11 9 7 9 10 17 19 22 21 19 16 15 13 10 8 6 4 3
5 5 5 5 5 3 4 3 3 2 1 2 2 3 1 1 4 9 3 8 6 9 7 6 7 7 8 6 9 12 12 11 17 21 22 19 18 15 12 9 7 6 4
5 5 5 5 5 3 3 3 3 2 1 1 0 2 2 2 0 1 9 4 6 4 5 5 6 5 7 7 7 6 11 10 12 18 18 18 18 16 14 12 8 5 4
3 4 5 5 4 4 3 3 3 3 3 1 0 1 2 3 3 2 6 10 10 5 7 6 4 4 4 4 10 18 10 8 8 13 9 8 13 14 14 12 10 8 5
2 3 3 2 1 1 1 3 3 3 2 2 3 2 3 3 2 3 5 6 5 4 4 5 4 4 4 4 4 11 17 12 7 8 13 3 5 9 12 10 9 7 4
1 2 2 1 1 2 2 3 2 3 3 4 4 3 2 3 4 4 3 3 7 4 4 5 4 4 4 4 5 5 6 18 12 9 8 14 5 5 6 8 8 8 6
2 3 2 3 4 5 5 4 4 5 4 5 5 5 3 4 3 4 4 5 5 7 8 3 3 4 5 4 6 4 1 5 15 14 9 4 15 12 7 9 7 8 8
2 3 4 4 5 5 5 3 4 5 5 5 4 4 4 3 4 3 4 4 4 7 10 3 4 4 6 7 8 5 5 2 3 7 10 11 12 16 13 14 11 12 10
1 3 4 4 4 5 5 4 5 5 4 4 5 5 5 3 3 4 4 4 4 3 6 3 3 3 3 4 7 5 5 5 4 9 8 9 16 16 19 14 14 12 12
2 4 4 5 5 5 5 4 5 5 5 5 5 5 5 7 6 6 4 6 6 7 5 6 4 3 3 4 3 5 7 6 4 9 14 14 12 15 15 13 11 10 11
5 5 4 4 4 4 4 5 5 4 4 3 4 5 7 8 8 6 7 6 6 7 4 4 4 3 3 0 2 3 4 4 5 11 8 7 3 5 11 12 12 13 12
5 4 3 2 2 5 4 4 3 2 3 3 4 5 6 7 8 8 8 6 5 5 4 4 3 3 3 3 2 3 4 2 5 6 6 7 6 7 6 3 5 9 8
4 4 3 3 5 4 3 3 1 2 4 4 5 5 5 9 17 14 7 6 5 4 3 4 3 2 2 2 3 2 4 3 3 4 3 2 2 2 4 6 6 6 7
5 4 4 5 4 2 4 3 3 4 4 5 5 6 5 10 9 16 17 17 12 8 8 7 6 7 7 4 3 4 3 2 3 3 2 3 2 4 4 3 8 7 7
9 0 4 4 2 2 5 6 8 4 4 5 6 6 7 7 12 9 13 17 14 15 12 8 9 8 8 5 4 4 5 4 4 5 2 4 1 3 4 5 10 11 11
7 2 4 3 3 3 7 8 9 4 4 5 6 6 7 9 8 12 11 9 7 7 8 7 8 8 8 8 6 7 9 6 4 7 3 6 3 5 3 5 15 15 16
2 3 4 3 3 4 9 10 7 4 5 6 7 7 10 9 14 20 10 10 11 9 9 15 16 17 14 13 11 7 6 6 5 7 4 3 5 3 3 5 6 17 16
5 4 3 2 2 3 9 11 9 1 3 6 7 9 15 15 20 21 13 10 9 9 7 8 7 9 10 9 14 8 6 8 6 5 5 6 2 3 4 3 6 6 5
Wind_Direction
145 166 196 212 253 299 265 289 270 273 277 292 291 278 277 271 256 241 242 236 229 241 255 264 268 273 269 260 259 265 267 265 263 257 245 237 233 230 221 224 215 215 218
157 155 77 356 344 325 290 264 277 308 305 303 293 288 282 274 262 256 249 251 235 230 233 245 252 257 265 265 251 246 257 258 256 254 252 245 241 237 229 227 219 210 211
162 137 159 211 302 347 347 347 342 336 330 327 304 303 293 292 294 282 275 273 272 240 234 233 240 242 246 254 251 249 253 252 252 253 250 251 246 247 243 239 240 224 210
150 155 159 26 358 5 11 19 11 354 349 336 317 306 306 302 295 291 282 265 252 260 254 244 237 234 231 239 246 250 248 251 248 241 245 243 241 226 229 231 240 240 234
90 72 50 21 21 27 27 18 354 37 324 329 324 319 305 302 295 307 297 289 259 248 251 254 245 234 228 231 238 244 247 250 245 245 233 240 230 220 237 211 228 237 234
45 46 27 19 16 22 13 8 10 341 311 303 320 308 297 285 283 297 306 317 322 293 271 266 266 251 233 231 232 234 239 247 248 243 240 232 225 214 224 215 203 178 227
45 46 41 34 26 41 7 5 353 342 317 343 334 322 302 280 332 6 357 344 358 1 9 356 301 280 277 256 235 229 232 237 242 242 235 231 224 213 210 214 213 219 155
51 60 48 34 31 20 6 3 12 331 323 13 343 286 325 315 19 340 347 351 11 18 10 0 358 357 308 288 263 245 231 234 233 235 237 216 221 217 211 210 213 224 185
57 58 51 46 30 37 29 34 32 42 354 331 33 75 332 309 324 338 326 0 9 359 353 347 344 335 334 334 307 284 267 242 228 233 222 211 218 224 220 220 217 220 232
68 68 73 73 68 56 40 3 35 41 342 345 309 17 266 312 308 315 11 329 350 340 341 332 321 315 331 322 328 315 301 296 270 230 222 212 215 213 215 223 229 239 247
46 63 75 73 60 45 25 11 356 30 55 116 101 317 321 295 98 306 309 325 322 315 309 308 305 318 334 350 333 341 342 328 302 259 237 209 210 212 205 201 202 220 252
49 51 68 71 66 48 21 351 346 338 340 344 70 174 310 309 318 289 301 313 316 313 315 299 313 328 331 342 353 350 348 358 9 347 282 211 205 215 211 195 187 194 208
35 27 32 57 80 77 354 331 323 318 318 336 265 240 227 225 223 230 259 272 285 308 286 295 311 303 329 338 344 13 356 350 17 30 333 250 211 227 216 189 179 177 183
163 230 235 42 346 302 316 315 300 290 273 257 266 251 230 256 256 269 262 263 289 265 294 257 291 298 304 303 296 359 27 356 16 32 347 334 314 195 211 193 179 166 167
221 226 261 260 273 284 277 273 264 270 262 270 269 268 265 263 251 249 234 237 262 289 294 285 276 283 305 301 270 265 240 67 342 338 326 299 289 283 218 200 194 191 188
329 316 294 241 249 256 280 304 296 280 268 269 267 275 277 292 281 271 278 287 261 252 281 221 273 281 291 309 310 256 234 187 212 297 333 276 275 274 222 223 217 204 209
336 327 288 287 310 307 293 287 290 304 340 22 20 14 336 327 320 296 308 286 273 251 274 277 246 280 312 330 328 326 262 222 228 233 229 284 250 257 249 230 217 206 202
231 261 283 291 314 310 327 353 41 46 31 17 352 346 332 331 309 293 269 274 273 272 237 246 231 238 251 292 306 322 318 314 289 244 234 215 221 250 247 241 226 214 207
249 259 254 278 301 1 74 75 72 51 26 7 333 323 315 310 301 292 286 280 268 276 251 243 255 227 237 261 322 313 327 333 336 358 20 24 348 260 239 241 253 229 215
256 272 254 237 57 122 108 83 73 30 347 323 308 296 291 288 288 287 286 291 305 301 289 277 270 248 221 252 255 292 300 305 307 314 309 296 313 307 311 327 256 247 233
258 221 210 87 130 137 124 116 160 290 300 294 286 281 290 303 310 306 317 308 301 296 292 291 290 266 253 275 252 250 278 274 285 260 275 271 272 326 319 313 290 265 244
300 214 120 140 164 133 153 212 235 267 287 278 286 283 276 301 305 311 302 303 294 286 279 270 266 253 254 240 240 237 231 272 290 255 242 283 355 289 275 264 265 266 263
271 195 122 130 115 206 216 312 311 257 270 278 282 284 298 305 311 296 292 291 286 280 275 270 268 251 259 234 231 249 236 217 231 256 170 265 237 248 262 267 254 253 254
273 244 129 91 41 321 331 326 330 332 309 294 291 291 291 298 290 303 297 292 276 275 268 263 258 255 238 249 224 242 254 242 239 255 181 268 225 243 230 239 245 253 256
256 110 96 77 12 328 348 11 38 12 343 315 307 306 305 309 304 312 313 308 292 272 276 281 284 285 276 262 260 263 263 241 247 259 184 204 258 248 216 243 227 243 241
105 113 89 49 11 17 10 19 18 322 314 315 313 309 309 316 318 314 299 282 275 276 276 281 279 277 275 269 268 248 244 246 245 288 219 184 217 164 305 270 235 223 222